GW0013 Weather Reports


time (UTC)temp
C
wind
direction
speed
KPH
gust
KPH
rain 1hr
cm
rain 24hr
cm
rain mn
cm
humidity
%
barometer
mb
20260507182312 33 146 4.8 8.0 0.00 0.00 0.00 12 1012.1
20260507181809 32 334 0.0 1.6 0.00 0.00 0.00 12 1011.9
20260507181305 32 30 0.0 0.0 0.00 0.00 0.00 12 1012.1
20260507180802 32 351 1.6 3.2 0.00 0.00 0.00 12 1012.3
20260507180259 32 275 1.6 3.2 0.00 0.00 0.00 12 1012.1
20260507175754 32 344 0.0 0.0 0.00 0.00 0.00 13 1012.1
20260507175251 32 0 3.2 3.2 0.00 0.00 0.00 12 1012.2
20260507174748 32 93 3.2 4.8 0.00 0.00 0.00 12 1012.4
20260507174247 32 170 4.8 9.7 0.00 0.00 0.00 12 1012.2
20260507173744 31 271 3.2 3.2 0.00 0.00 0.00 12 1012.3
20260507173241 31 322 3.2 3.2 0.00 0.00 0.00 12 1012.5
20260507172737 31 354 1.6 1.6 0.00 0.00 0.00 12 1012.3
20260507172234 31 83 4.8 4.8 0.00 0.00 0.00 12 1012.5
20260507171734 31 334 4.8 4.8 0.00 0.00 0.00 13 1012.6
20260507171232 31 72 4.8 4.8 0.00 0.00 0.00 12 1012.5
20260507170729 31 321 4.8 8.0 0.00 0.00 0.00 12 1012.4
20260507170226 31 4 0.0 0.0 0.00 0.00 0.00 13 1012.5
20260507165721 31 95 1.6 1.6 0.00 0.00 0.00 12 1012.6
20260507165217 30 7 1.6 1.6 0.00 0.00 0.00 12 1012.5
20260507164714 31 274 3.2 4.8 0.00 0.00 0.00 12 1012.8
20260507164211 31 319 3.2 4.8 0.00 0.00 0.00 12 1012.9
20260507163708 30 2 0.0 0.0 0.00 0.00 0.00 12 1012.7
20260507163206 30 50 4.8 8.0 0.00 0.00 0.00 12 1012.7
20260507162702 30 20 3.2 3.2 0.00 0.00 0.00 12 1012.7
20260507162158 30 8 1.6 1.6 0.00 0.00 0.00 12 1013.0
20260507161654 31 13 1.6 1.6 0.00 0.00 0.00 12 1013.0
20260507161150 30 297 0.0 1.6 0.00 0.00 0.00 13 1013.0
20260507160647 30 11 1.6 1.6 0.00 0.00 0.00 13 1013.0
20260507160144 30 357 3.2 4.8 0.00 0.00 0.00 12 1013.0
20260507155639 30 58 3.2 3.2 0.00 0.00 0.00 12 1012.9
20260507155136 30 339 0.0 0.0 0.00 0.00 0.00 17 1013.1
20260507154633 29 352 0.0 0.0 0.00 0.00 0.00 17 1013.0
20260507154131 28 285 3.2 4.8 0.00 0.00 0.00 19 1013.3
20260507153627 27 352 0.0 0.0 0.00 0.00 0.00 20 1013.1
20260507153123 27 345 1.6 1.6 0.00 0.00 0.00 21 1012.9
20260507152620 27 350 0.0 0.0 0.00 0.00 0.00 22 1013.2
20260507152116 27 323 1.6 1.6 0.00 0.00 0.00 22 1013.3
20260507151612 26 358 0.0 0.0 0.00 0.00 0.00 24 1013.2
20260507151109 26 350 0.0 0.0 0.00 0.00 0.00 24 1013.1
20260507150606 26 342 0.0 0.0 0.00 0.00 0.00 25 1013.1
20260507145558 25 357 0.0 0.0 0.00 0.00 0.00 25 1013.0
20260507145056 25 356 0.0 0.0 0.00 0.00 0.00 25 1013.3
20260507144552 25 359 0.0 0.0 0.00 0.00 0.00 26 1013.3
20260507144050 24 349 0.0 0.0 0.00 0.00 0.00 26 1013.2
20260507143546 23 350 0.0 0.0 0.00 0.00 0.00 27 1013.1
20260507143044 23 3 0.0 0.0 0.00 0.00 0.00 26 1013.1
20260507142539 23 341 0.0 0.0 0.00 0.00 0.00 27 1013.3
20260507142036 23 19 0.0 0.0 0.00 0.00 0.00 27 1013.3
20260507141532 23 358 0.0 0.0 0.00 0.00 0.00 27 1013.1
20260507141029 22 347 0.0 0.0 0.00 0.00 0.00 29 1013.1
20260507140526 21 354 0.0 0.0 0.00 0.00 0.00 30 1012.9
20260507140024 21 343 1.6 3.2 0.00 0.00 0.00 30 1013.1
20260507135520 21 355 0.0 0.0 0.00 0.00 0.00 30 1013.1
20260507135018 20 0 0.0 0.0 0.00 0.00 0.00 30 1013.1
20260507134514 20 0 0.0 0.0 0.00 0.00 0.00 31 1013.0
20260507134009 20 357 0.0 0.0 0.00 0.00 0.00 31 1012.9
20260507133506 19 345 0.0 0.0 0.00 0.00 0.00 32 1012.9
20260507133005 18 352 0.0 0.0 0.00 0.00 0.00 32 1012.9
20260507132500 18 343 0.0 0.0 0.00 0.00 0.00 33 1013.0
20260507131957 17 355 0.0 0.0 0.00 0.00 0.00 34 1012.9
20260507131454 17 338 0.0 0.0 0.00 0.00 0.00 34 1012.5
20260507130951 17 1 0.0 0.0 0.00 0.00 0.00 34 1012.7
20260507130448 17 350 0.0 0.0 0.00 0.00 0.00 35 1012.8
20260507125946 16 355 0.0 0.0 0.00 0.00 0.00 35 1012.7
20260507125444 16 355 0.0 0.0 0.00 0.00 0.00 35 1012.7
20260507124941 16 354 0.0 0.0 0.00 0.00 0.00 35 1012.6
20260507124437 16 352 0.0 0.0 0.00 0.00 0.00 35 1012.3
20260507123936 16 349 0.0 0.0 0.00 0.00 0.00 35 1012.5
20260507123433 16 353 0.0 0.0 0.00 0.00 0.00 35 1012.6
20260507122929 16 350 0.0 0.0 0.00 0.00 0.00 35 1012.5
20260507122424 16 354 0.0 0.0 0.00 0.00 0.00 35 1012.5
20260507121921 17 355 0.0 0.0 0.00 0.00 0.00 35 1012.5
20260507121416 17 345 0.0 0.0 0.00 0.00 0.00 35 1012.5
20260507120913 17 350 0.0 0.0 0.00 0.00 0.00 34 1012.5
20260507120409 17 344 0.0 0.0 0.00 0.00 0.00 34 1012.4
20260507115906 17 350 0.0 0.0 0.00 0.00 0.00 34 1012.3
20260507115402 17 350 0.0 0.0 0.00 0.00 0.00 34 1012.6
20260507114858 17 349 0.0 0.0 0.00 0.00 0.00 34 1012.7
20260507114355 17 0 0.0 0.0 0.00 0.00 0.00 34 1012.8
20260507113852 17 11 0.0 0.0 0.00 0.00 0.00 34 1012.7
20260507113349 16 349 0.0 0.0 0.00 0.00 0.00 35 1012.7
20260507112846 16 351 0.0 0.0 0.00 0.00 0.00 35 1012.6
20260507112343 16 350 0.0 0.0 0.00 0.00 0.00 35 1012.8
20260507111841 16 352 0.0 0.0 0.00 0.00 0.00 35 1013.1
20260507111338 16 352 0.0 0.0 0.00 0.00 0.00 35 1012.9
20260507110834 16 349 0.0 0.0 0.00 0.00 0.00 35 1013.0
20260507110330 17 346 0.0 0.0 0.00 0.00 0.00 34 1012.9
20260507105827 17 351 0.0 0.0 0.00 0.00 0.00 34 1012.9
20260507105324 17 351 0.0 0.0 0.00 0.00 0.00 33 1012.9
20260507104821 17 353 0.0 0.0 0.00 0.00 0.00 33 1013.1
20260507104317 17 351 0.0 0.0 0.00 0.00 0.00 33 1012.8
20260507103813 17 354 0.0 0.0 0.00 0.00 0.00 33 1013.2
20260507103309 17 347 0.0 0.0 0.00 0.00 0.00 32 1013.0
20260507102806 18 352 0.0 1.6 0.00 0.00 0.00 31 1013.1
20260507102306 18 329 1.6 1.6 0.00 0.00 0.00 31 1013.2
20260507101759 18 343 0.0 0.0 0.00 0.00 0.00 32 1013.1
20260507101254 17 349 0.0 0.0 0.00 0.00 0.00 33 1013.1
20260507100751 18 352 0.0 0.0 0.00 0.00 0.00 32 1013.2
20260507100249 18 351 0.0 0.0 0.00 0.00 0.00 32 1013.2
20260507095747 18 6 0.0 0.0 0.00 0.00 0.00 31 1013.0
20260507095243 18 355 0.0 0.0 0.00 0.00 0.00 30 1013.0
20260507094740 18 352 0.0 0.0 0.00 0.00 0.00 30 1013.0
20260507094237 18 357 0.0 0.0 0.00 0.00 0.00 30 1012.9
20260507093734 18 6 0.0 1.6 0.00 0.00 0.00 30 1012.9
20260507093233 18 343 0.0 0.0 0.00 0.00 0.00 30 1013.0
20260507092730 18 351 0.0 0.0 0.00 0.00 0.00 30 1012.9
20260507092226 18 353 0.0 0.0 0.00 0.00 0.00 30 1013.1
20260507091722 18 347 0.0 0.0 0.00 0.00 0.00 30 1013.1
20260507091219 18 351 0.0 0.0 0.00 0.00 0.00 30 1013.4
20260507090719 18 336 0.0 0.0 0.00 0.00 0.00 30 1013.1
20260507090217 18 346 0.0 0.0 0.00 0.00 0.00 30 1013.1
20260507085714 18 342 0.0 0.0 0.00 0.00 0.00 30 1013.4
20260507085211 18 351 0.0 0.0 0.00 0.00 0.00 30 1013.3
20260507084708 18 3 0.0 0.0 0.00 0.00 0.00 29 1013.5
20260507084204 19 340 0.0 0.0 0.00 0.00 0.00 29 1013.1
20260507083701 19 351 0.0 0.0 0.00 0.00 0.00 29 1013.2
20260507083158 19 353 0.0 0.0 0.00 0.00 0.00 29 1013.3
20260507082654 19 351 0.0 0.0 0.00 0.00 0.00 30 1013.2
20260507082150 19 350 0.0 0.0 0.00 0.00 0.00 29 1013.4
20260507081647 19 345 0.0 0.0 0.00 0.00 0.00 29 1013.5
20260507081143 18 351 0.0 0.0 0.00 0.00 0.00 31 1013.3
20260507080640 18 352 0.0 0.0 0.00 0.00 0.00 32 1013.2
20260507080136 18 351 0.0 0.0 0.00 0.00 0.00 34 1013.4
20260507075631 18 350 0.0 0.0 0.00 0.00 0.00 34 1013.4
20260507075128 18 351 0.0 0.0 0.00 0.00 0.00 34 1013.4
20260507074624 18 349 0.0 0.0 0.00 0.00 0.00 34 1013.5
20260507074123 19 350 0.0 0.0 0.00 0.00 0.00 34 1013.3
20260507073619 19 351 0.0 0.0 0.00 0.00 0.00 34 1013.5
20260507073115 19 351 0.0 0.0 0.00 0.00 0.00 33 1013.3
20260507072613 19 352 0.0 0.0 0.00 0.00 0.00 33 1013.3
20260507072110 19 350 0.0 0.0 0.00 0.00 0.00 33 1013.2
20260507071607 19 351 0.0 0.0 0.00 0.00 0.00 33 1013.2
20260507071103 19 351 0.0 0.0 0.00 0.00 0.00 33 1013.3
20260507070601 19 352 0.0 0.0 0.00 0.00 0.00 33 1013.4
20260507070058 20 351 0.0 0.0 0.00 0.00 0.00 32 1013.4
20260507065554 20 344 0.0 0.0 0.00 0.00 0.00 32 1013.2
20260507065051 20 351 0.0 0.0 0.00 0.00 0.00 31 1013.4
20260507064549 20 351 0.0 0.0 0.00 0.00 0.00 31 1013.2
20260507064047 20 352 0.0 0.0 0.00 0.00 0.00 29 1013.2
20260507063544 20 352 0.0 0.0 0.00 0.00 0.00 28 1013.3
20260507063041 20 351 0.0 0.0 0.00 0.00 0.00 28 1013.1
20260507062538 21 351 0.0 0.0 0.00 0.00 0.00 28 1013.2
20260507062036 21 353 0.0 0.0 0.00 0.00 0.00 27 1013.3
20260507061533 21 353 0.0 0.0 0.00 0.00 0.00 27 1013.3
20260507061031 21 350 0.0 0.0 0.00 0.00 0.00 26 1013.1
20260507060529 21 351 0.0 0.0 0.00 0.00 0.00 27 1013.3
20260507060025 21 350 0.0 0.0 0.00 0.00 0.00 27 1013.4
20260507055520 21 351 0.0 0.0 0.00 0.00 0.00 27 1013.3
20260507055017 22 352 0.0 0.0 0.00 0.00 0.00 26 1013.3
20260507054513 22 335 0.0 0.0 0.00 0.00 0.00 26 1013.2
20260507054010 22 352 0.0 0.0 0.00 0.00 0.00 26 1013.3
20260507053508 22 352 0.0 0.0 0.00 0.00 0.00 26 1013.4
20260507053006 22 342 0.0 0.0 0.00 0.00 0.00 26 1013.2
20260507052503 22 350 0.0 0.0 0.00 0.00 0.00 25 1013.2
20260507051959 22 349 0.0 0.0 0.00 0.00 0.00 25 1013.5
20260507051458 23 9 0.0 0.0 0.00 0.00 0.00 25 1013.1
20260507050954 23 357 0.0 0.0 0.00 0.00 0.00 25 1013.3
20260507050450 23 355 0.0 0.0 0.00 0.00 0.00 24 1013.4
20260507045948 23 353 0.0 0.0 0.00 0.00 0.00 24 1013.4
20260507045444 23 351 0.0 0.0 0.00 0.00 0.00 24 1013.1
20260507044941 24 5 0.0 0.0 0.00 0.00 0.00 24 1013.1
20260507044438 24 352 0.0 0.0 0.00 0.00 0.00 23 1012.9
20260507043934 24 355 0.0 1.6 0.00 0.00 0.00 23 1013.0
20260507043430 24 352 0.0 0.0 0.00 0.00 0.00 24 1013.0
20260507042927 24 12 0.0 1.6 0.00 0.00 0.00 23 1013.1
20260507042424 24 348 0.0 0.0 0.00 0.00 0.00 23 1012.9
20260507041919 24 351 0.0 1.6 0.00 0.00 0.00 23 1012.8
20260507041416 24 330 0.0 0.0 0.00 0.00 0.00 24 1012.8
20260507040914 24 0 0.0 0.0 0.00 0.00 0.00 23 1012.7
20260507040409 25 342 1.6 1.6 0.00 0.00 0.00 23 1012.9
20260507035905 25 347 0.0 0.0 0.00 0.00 0.00 23 1012.4
20260507035402 25 351 0.0 0.0 0.00 0.00 0.00 23 1012.3
20260507034859 25 9 0.0 0.0 0.00 0.00 0.00 23 1012.5
20260507034355 25 2 0.0 0.0 0.00 0.00 0.00 22 1012.3
20260507033853 25 352 0.0 1.6 0.00 0.00 0.00 22 1012.3
20260507033351 25 11 0.0 0.0 0.00 0.00 0.00 22 1012.3
20260507032848 25 350 0.0 0.0 0.00 0.00 0.00 22 1012.2
20260507032345 25 328 3.2 3.2 0.00 0.00 0.00 22 1012.2
20260507031841 25 263 0.0 1.6 0.00 0.00 0.00 22 1012.0
20260507031338 25 18 1.6 3.2 0.00 0.00 0.00 22 1012.0
20260507030834 25 23 0.0 1.6 0.00 0.00 0.00 22 1012.0
20260507030332 25 338 0.0 0.0 0.00 0.00 0.00 22 1011.9
20260507025828 26 25 1.6 1.6 0.00 0.00 0.00 22 1011.8
20260507025326 26 57 3.2 4.8 0.00 0.00 0.00 22 1011.9
20260507024824 26 87 3.2 3.2 0.00 0.00 0.00 22 1011.8
20260507024321 26 327 1.6 3.2 0.00 0.00 0.00 22 1011.8
20260507023816 26 343 1.6 1.6 0.00 0.00 0.00 22 1011.8
20260507023313 26 223 0.0 1.6 0.00 0.00 0.00 22 1011.4
20260507022811 26 353 0.0 1.6 0.00 0.00 0.00 22 1011.4
20260507022307 26 351 0.0 0.0 0.00 0.00 0.00 22 1011.3
20260507021803 26 264 0.0 1.6 0.00 0.00 0.00 21 1011.4
20260507021259 26 359 3.2 3.2 0.00 0.00 0.00 21 1011.5
20260507020757 26 25 3.2 4.8 0.00 0.00 0.00 21 1011.3
20260507020253 27 16 1.6 1.6 0.00 0.00 0.00 21 1011.6
20260507015751 27 353 1.6 1.6 0.00 0.00 0.00 21 1011.1
20260507015248 27 308 6.4 9.7 0.00 0.00 0.00 21 1011.5
20260507014745 27 125 4.8 8.0 0.00 0.00 0.00 21 1011.6
20260507014241 27 130 4.8 4.8 0.00 0.00 0.00 20 1011.3
20260507013738 27 256 3.2 4.8 0.00 0.00 0.00 20 1011.1
20260507013235 27 271 3.2 3.2 0.00 0.00 0.00 20 1011.3
20260507012732 27 286 3.2 3.2 0.00 0.00 0.00 20 1011.1
20260507012228 28 175 4.8 4.8 0.00 0.00 0.00 20 1010.9
20260507011726 28 304 6.4 9.7 0.00 0.00 0.00 20 1011.5
20260507011222 28 80 6.4 8.0 0.00 0.00 0.00 20 1011.4
20260507010721 28 33 4.8 8.0 0.00 0.00 0.00 20 1011.1
20260507010218 28 248 1.6 3.2 0.00 0.00 0.00 20 1011.1
20260507005716 28 127 3.2 4.8 0.00 0.00 0.00 21 1011.1
20260507005211 28 233 4.8 4.8 0.00 0.00 0.00 21 1011.4
20260507004708 28 194 6.4 8.0 0.00 0.00 0.00 21 1011.0
20260507004206 28 164 4.8 4.8 0.00 0.00 0.00 21 1011.0
20260507003702 28 39 3.2 4.8 0.00 0.00 0.00 21 1011.4
20260507003157 28 303 3.2 4.8 0.00 0.00 0.00 20 1011.4
20260507002654 28 153 6.4 11.3 0.00 0.00 0.00 20 1011.5
20260507002149 28 194 4.8 8.0 0.00 0.00 0.00 21 1011.0
20260507001647 28 0 1.6 1.6 0.00 0.00 0.00 21 1011.1
20260507001144 28 307 1.6 3.2 0.00 0.00 0.00 20 1011.4
20260507000640 28 8 3.2 3.2 0.00 0.00 0.00 20 1011.1
20260507000136 29 308 4.8 4.8 0.00 0.00 0.00 20 1011.5
20260506235633 28 294 4.8 8.0 0.00 0.00 0.00 20 1011.3
20260506235133 28 141 4.8 8.0 0.00 0.00 0.00 20 1011.0
20260506234631 28 355 4.8 4.8 0.00 0.00 0.00 20 1011.1
20260506234128 29 319 3.2 3.2 0.00 0.00 0.00 20 1011.4
20260506233625 28 21 8.0 9.7 0.00 0.00 0.00 20 1011.7
20260506233122 30 266 4.8 8.0 0.00 0.00 0.00 20 1011.5
20260506232618 28 194 4.8 9.7 0.00 0.00 0.00 20 1011.5
20260506232114 28 347 9.7 12.9 0.00 0.00 0.00 21 1011.7
20260506231611 28 6 1.6 3.2 0.00 0.00 0.00 21 1011.8
20260506231109 28 31 6.4 8.0 0.00 0.00 0.00 21 1011.8
20260506230606 29 167 1.6 3.2 0.00 0.00 0.00 20 1011.7
20260506230103 30 42 0.0 1.6 0.00 0.00 0.00 20 1011.8
20260506225559 29 350 0.0 0.0 0.00 0.00 0.00 20 1011.9
20260506225055 28 21 1.6 1.6 0.00 0.00 0.00 21 1011.8
20260506224553 29 95 1.6 3.2 0.00 0.00 0.00 21 1011.8
20260506224049 29 330 1.6 1.6 0.00 0.00 0.00 20 1012.1
20260506223545 29 36 3.2 4.8 0.00 0.00 0.00 20 1012.2
20260506223042 29 162 3.2 8.0 0.00 0.00 0.00 20 1012.2
20260506222539 29 319 1.6 1.6 0.00 0.00 0.00 20 1012.3
20260506222035 29 332 3.2 3.2 0.00 0.00 0.00 21 1012.4
20260506221533 28 3 3.2 3.2 0.00 0.00 0.00 21 1012.1
20260506221030 28 4 3.2 4.8 0.00 0.00 0.00 21 1012.4
20260506220526 28 172 6.4 9.7 0.00 0.00 0.00 21 1012.5
20260506220022 29 11 1.6 3.2 0.00 0.00 0.00 21 1012.5
20260506215519 29 328 3.2 4.8 0.00 0.00 0.00 21 1012.4
20260506215015 28 355 4.8 4.8 0.00 0.00 0.00 21 1012.7
20260506214512 28 313 1.6 3.2 0.00 0.00 0.00 21 1012.6
20260506214009 29 308 4.8 8.0 0.00 0.00 0.00 21 1012.8
20260506213507 28 327 3.2 4.8 0.00 0.00 0.00 21 1012.9
20260506213004 28 24 3.2 3.2 0.00 0.00 0.00 21 1013.1
20260506212500 28 346 1.6 1.6 0.00 0.00 0.00 20 1013.0
20260506211955 30 353 0.0 1.6 0.00 0.00 0.00 20 1013.2
20260506211451 29 345 0.0 0.0 0.00 0.00 0.00 21 1013.0
20260506210949 28 3 0.0 0.0 0.00 0.00 0.00 21 1013.5
20260506210445 29 256 6.4 9.7 0.00 0.00 0.00 21 1013.5
20260506205942 28 333 1.6 3.2 0.00 0.00 0.00 21 1013.4
20260506205438 28 163 3.2 4.8 0.00 0.00 0.00 21 1013.6
20260506204934 28 347 1.6 3.2 0.00 0.00 0.00 22 1013.6
20260506204432 28 340 0.0 1.6 0.00 0.00 0.00 21 1013.7
20260506203929 28 310 1.6 1.6 0.00 0.00 0.00 22 1013.6
20260506203426 28 346 0.0 0.0 0.00 0.00 0.00 22 1013.7
20260506202923 27 327 1.6 1.6 0.00 0.00 0.00 22 1013.8
20260506202421 28 25 3.2 4.8 0.00 0.00 0.00 22 1013.9
20260506201917 28 291 1.6 1.6 0.00 0.00 0.00 23 1013.7
20260506201414 28 359 0.0 0.0 0.00 0.00 0.00 22 1014.2
20260506200911 27 130 4.8 8.0 0.00 0.00 0.00 22 1013.9
20260506200407 27 283 3.2 3.2 0.00 0.00 0.00 23 1014.1
20260506195904 27 353 0.0 1.6 0.00 0.00 0.00 23 1014.2
20260506195401 27 38 3.2 4.8 0.00 0.00 0.00 23 1014.3
20260506194858 27 86 4.8 8.0 0.00 0.00 0.00 22 1014.1
20260506194354 27 324 3.2 3.2 0.00 0.00 0.00 23 1014.3
20260506193852 27 352 0.0 1.6 0.00 0.00 0.00 22 1014.2
20260506193349 27 326 0.0 0.0 0.00 0.00 0.00 23 1014.5
20260506192845 28 359 0.0 0.0 0.00 0.00 0.00 23 1014.4
20260506192342 27 348 1.6 1.6 0.00 0.00 0.00 23 1014.3
20260506191839 27 337 0.0 1.6 0.00 0.00 0.00 24 1014.6
20260506191335 27 342 6.4 8.0 0.00 0.00 0.00 23 1014.5
20260506190832 27 238 4.8 8.0 0.00 0.00 0.00 23 1014.7
20260506190328 27 342 1.6 1.6 0.00 0.00 0.00 23 1014.5
20260506185825 27 232 1.6 3.2 0.00 0.00 0.00 23 1014.6
20260506185322 27 0 0.0 1.6 0.00 0.00 0.00 22 1014.5
20260506184819 27 358 1.6 1.6 0.00 0.00 0.00 24 1014.7
20260506184317 27 349 6.4 9.7 0.00 0.00 0.00 23 1014.9
20260506183814 27 293 1.6 1.6 0.00 0.00 0.00 23 1014.9
20260506183309 27 346 1.6 1.6 0.00 0.00 0.00 23 1014.8
20260506182806 26 358 0.0 0.0 0.00 0.00 0.00 24 1015.0